Year,Month,Day,Hour,Minute,Value (Times are PST for temperature in C)
2012,01,23,01,35,3.00
2012,01,23,01,36,3.00
2012,01,23,01,37,3.00
2012,01,23,01,38,2.90
2012,01,23,01,39,2.90
2012,01,23,01,40,2.90
2012,01,23,01,41,2.80
2012,01,23,01,42,2.80
2012,01,23,01,43,2.70
2012,01,23,01,44,2.70
2012,01,23,01,45,2.70
2012,01,23,01,46,2.70
2012,01,23,01,47,2.70
2012,01,23,01,48,2.70
2012,01,23,01,49,2.60
2012,01,23,01,50,2.60
2012,01,23,01,51,2.60
2012,01,23,01,52,2.60
2012,01,23,01,53,2.60
2012,01,23,01,54,2.60
2012,01,23,01,55,2.60
2012,01,23,01,56,2.70
2012,01,23,01,57,2.70
2012,01,23,01,58,2.60
2012,01,23,01,59,2.60
2012,01,23,02,00,2.60
2012,01,23,02,01,2.60
2012,01,23,02,02,2.60
2012,01,23,02,03,2.60
2012,01,23,02,04,2.60
2012,01,23,02,05,2.60
2012,01,23,02,06,2.50
2012,01,23,02,07,2.50
2012,01,23,02,08,2.50
2012,01,23,02,09,2.50
2012,01,23,02,10,2.40
2012,01,23,02,11,2.40
2012,01,23,02,12,2.40
2012,01,23,02,13,2.50
2012,01,23,02,14,2.50
2012,01,23,02,15,2.50
2012,01,23,02,16,2.40
2012,01,23,02,17,2.40
2012,01,23,02,18,2.50
2012,01,23,02,19,2.50
2012,01,23,02,20,2.60
2012,01,23,02,21,2.70
2012,01,23,02,22,2.70
2012,01,23,02,23,2.80
2012,01,23,02,24,2.80
2012,01,23,02,25,2.80
2012,01,23,02,26,2.80
2012,01,23,02,27,2.80
2012,01,23,02,28,2.80
2012,01,23,02,29,2.80
2012,01,23,02,30,2.80
2012,01,23,02,31,2.80
2012,01,23,02,32,2.80
2012,01,23,02,33,2.80
2012,01,23,02,34,2.80
2012,01,23,02,35,2.80
2012,01,23,02,36,2.80
2012,01,23,02,37,2.80
2012,01,23,02,38,2.90
2012,01,23,02,39,3.00
2012,01,23,02,40,3.00
2012,01,23,02,41,3.10
2012,01,23,02,42,3.10
2012,01,23,02,43,3.10
2012,01,23,02,44,3.10
2012,01,23,02,45,3.10
2012,01,23,02,46,3.10
2012,01,23,02,47,3.10
2012,01,23,02,48,3.10
2012,01,23,02,49,3.10
2012,01,23,02,50,3.10
2012,01,23,02,51,3.10
2012,01,23,02,52,3.10
2012,01,23,02,53,3.10
2012,01,23,02,54,3.10
2012,01,23,02,55,3.00
2012,01,23,02,56,3.00
2012,01,23,02,57,3.00
2012,01,23,02,58,3.00
2012,01,23,02,59,3.00
2012,01,23,03,00,3.00
2012,01,23,03,01,3.00
2012,01,23,03,02,3.10
2012,01,23,03,03,3.20
2012,01,23,03,04,3.30
2012,01,23,03,05,3.30
2012,01,23,03,06,3.30
2012,01,23,03,07,3.40
2012,01,23,03,08,3.40
2012,01,23,03,09,3.40
2012,01,23,03,10,3.50
2012,01,23,03,11,3.50
2012,01,23,03,12,3.60
2012,01,23,03,13,3.70
2012,01,23,03,14,3.70
2012,01,23,03,15,3.70
2012,01,23,03,16,3.70
2012,01,23,03,17,3.70
2012,01,23,03,18,3.70
2012,01,23,03,19,3.80
2012,01,23,03,20,3.80
2012,01,23,03,21,3.80
2012,01,23,03,22,3.90
2012,01,23,03,23,3.90
2012,01,23,03,24,3.90
2012,01,23,03,25,3.90
2012,01,23,03,26,3.90
2012,01,23,03,27,3.90
2012,01,23,03,28,3.90
2012,01,23,03,29,3.90
2012,01,23,03,30,3.90
2012,01,23,03,31,3.90
2012,01,23,03,32,3.90
2012,01,23,03,33,4.00
2012,01,23,03,34,4.00
2012,01,23,03,35,3.90
2012,01,23,03,36,3.90
2012,01,23,03,37,4.00
2012,01,23,03,38,4.00
2012,01,23,03,39,4.00
2012,01,23,03,40,4.00
2012,01,23,03,41,4.00
2012,01,23,03,42,4.10
2012,01,23,03,43,4.10
2012,01,23,03,44,4.10
2012,01,23,03,45,4.10
2012,01,23,03,46,4.10
2012,01,23,03,47,4.10
2012,01,23,03,48,4.00
2012,01,23,03,49,4.00
2012,01,23,03,50,4.00
2012,01,23,03,51,3.90
2012,01,23,03,52,3.90
2012,01,23,03,53,3.90
2012,01,23,03,54,3.90
2012,01,23,03,55,3.90
2012,01,23,03,56,3.90
2012,01,23,03,57,3.80
2012,01,23,03,58,3.80
2012,01,23,03,59,3.70
2012,01,23,04,00,3.70
2012,01,23,04,01,3.60
2012,01,23,04,02,3.50
2012,01,23,04,03,3.50
2012,01,23,04,04,3.40
2012,01,23,04,05,3.30
2012,01,23,04,06,3.30
2012,01,23,04,07,3.20
2012,01,23,04,08,3.20
2012,01,23,04,09,3.20
2012,01,23,04,10,3.20
2012,01,23,04,11,3.20
2012,01,23,04,12,3.20
2012,01,23,04,13,3.20
2012,01,23,04,14,3.20
2012,01,23,04,15,3.20
2012,01,23,04,16,3.20
2012,01,23,04,17,3.20
2012,01,23,04,18,3.20
2012,01,23,04,19,3.30
2012,01,23,04,20,3.40
2012,01,23,04,21,3.50
2012,01,23,04,22,3.60
2012,01,23,04,23,3.70
2012,01,23,04,24,3.80
2012,01,23,04,25,3.90
2012,01,23,04,26,4.00
2012,01,23,04,27,4.00
2012,01,23,04,28,4.10
2012,01,23,04,29,4.20
2012,01,23,04,30,4.20
2012,01,23,04,31,4.20
2012,01,23,04,32,4.30
2012,01,23,04,33,4.30
2012,01,23,04,34,4.30
2012,01,23,04,35,4.30
2012,01,23,04,36,4.30
2012,01,23,04,37,4.20
2012,01,23,04,38,4.20
2012,01,23,04,39,4.20
2012,01,23,04,40,4.20
2012,01,23,04,41,4.20
2012,01,23,04,42,4.20
2012,01,23,04,43,4.10
2012,01,23,04,44,4.10
2012,01,23,04,45,4.10
2012,01,23,04,46,4.00
2012,01,23,04,47,4.00
2012,01,23,04,48,3.90
2012,01,23,04,49,3.90
2012,01,23,04,50,3.90
2012,01,23,04,51,3.90
2012,01,23,04,52,3.90
2012,01,23,04,53,3.80
2012,01,23,04,54,3.80
2012,01,23,04,55,3.80
2012,01,23,04,56,3.80
2012,01,23,04,57,3.70
2012,01,23,04,58,3.70
2012,01,23,04,59,3.70
2012,01,23,05,00,3.70
2012,01,23,05,01,3.70
2012,01,23,05,02,3.70
2012,01,23,05,03,3.70
2012,01,23,05,04,3.60
2012,01,23,05,05,3.60
2012,01,23,05,06,3.60
2012,01,23,05,07,3.60
2012,01,23,05,08,3.60
2012,01,23,05,09,3.50
2012,01,23,05,10,3.50
2012,01,23,05,11,3.50
2012,01,23,05,12,3.50
2012,01,23,05,13,3.50
2012,01,23,05,14,3.40
2012,01,23,05,15,3.40
2012,01,23,05,16,3.40
2012,01,23,05,17,3.40
2012,01,23,05,18,3.40
2012,01,23,05,19,3.30
2012,01,23,05,20,3.30
2012,01,23,05,21,3.30
2012,01,23,05,22,3.30
2012,01,23,05,23,3.30
2012,01,23,05,24,3.30
2012,01,23,05,25,3.30
2012,01,23,05,26,3.30
2012,01,23,05,27,3.30
2012,01,23,05,28,3.30
2012,01,23,05,29,3.30
2012,01,23,05,30,3.30
2012,01,23,05,31,3.30
2012,01,23,05,32,3.30
2012,01,23,05,33,3.30
2012,01,23,05,34,3.30
2012,01,23,05,35,3.30
2012,01,23,05,36,3.30
2012,01,23,05,37,3.30
2012,01,23,05,38,3.30
2012,01,23,05,39,3.20
2012,01,23,05,40,3.20
2012,01,23,05,41,3.20
2012,01,23,05,42,3.20
2012,01,23,05,43,3.20
2012,01,23,05,44,3.20
2012,01,23,05,45,3.20
2012,01,23,05,46,3.20
2012,01,23,05,47,3.20
2012,01,23,05,48,3.20
2012,01,23,05,49,3.20
2012,01,23,05,50,3.20
2012,01,23,05,51,3.20
2012,01,23,05,52,3.20
2012,01,23,05,53,3.20
2012,01,23,05,54,3.20
2012,01,23,05,55,3.20
2012,01,23,05,56,3.20
2012,01,23,05,57,3.20
2012,01,23,05,58,3.30
2012,01,23,05,59,3.30
2012,01,23,06,00,3.30
2012,01,23,06,01,3.30
2012,01,23,06,02,3.30
2012,01,23,06,03,3.30
2012,01,23,06,04,3.40
2012,01,23,06,05,3.40
2012,01,23,06,06,3.40
2012,01,23,06,07,3.50
2012,01,23,06,08,3.50
2012,01,23,06,09,3.50
2012,01,23,06,10,3.50
2012,01,23,06,11,3.60
2012,01,23,06,12,3.60
2012,01,23,06,13,3.60
2012,01,23,06,14,3.60
2012,01,23,06,15,3.60
2012,01,23,06,16,3.60
2012,01,23,06,17,3.60
2012,01,23,06,18,3.60
2012,01,23,06,19,3.60
2012,01,23,06,20,3.60
2012,01,23,06,21,3.60
2012,01,23,06,22,3.60
2012,01,23,06,23,3.60
2012,01,23,06,24,3.60
2012,01,23,06,25,3.50
2012,01,23,06,26,3.50
2012,01,23,06,27,3.50
2012,01,23,06,28,3.50
2012,01,23,06,29,3.50
2012,01,23,06,30,3.50
2012,01,23,06,31,3.40
2012,01,23,06,32,3.40
2012,01,23,06,33,3.40
2012,01,23,06,34,3.40
2012,01,23,06,35,3.40
2012,01,23,06,36,3.50
2012,01,23,06,37,3.50
2012,01,23,06,38,3.50
2012,01,23,06,39,3.50
2012,01,23,06,40,3.50
2012,01,23,06,41,3.60
2012,01,23,06,42,3.60
2012,01,23,06,43,3.60
2012,01,23,06,44,3.60
2012,01,23,06,45,3.70
2012,01,23,06,46,3.70
2012,01,23,06,47,3.70
2012,01,23,06,48,3.70
2012,01,23,06,49,3.70
2012,01,23,06,50,3.70
2012,01,23,06,51,3.70
2012,01,23,06,52,3.70
2012,01,23,06,53,3.70
2012,01,23,06,54,3.70
2012,01,23,06,55,3.80
2012,01,23,06,56,3.80
2012,01,23,06,57,3.80
2012,01,23,06,58,3.80
2012,01,23,06,59,3.80
2012,01,23,07,00,3.80
2012,01,23,07,01,3.80
2012,01,23,07,02,3.80
2012,01,23,07,03,3.80
2012,01,23,07,04,3.80
2012,01,23,07,05,3.80
2012,01,23,07,06,3.80
2012,01,23,07,07,3.80
2012,01,23,07,08,3.80
2012,01,23,07,09,3.80
2012,01,23,07,10,3.80
2012,01,23,07,11,3.80
2012,01,23,07,12,3.80
2012,01,23,07,13,3.80
2012,01,23,07,14,3.90
2012,01,23,07,15,3.90
2012,01,23,07,16,3.90
2012,01,23,07,17,3.90
2012,01,23,07,18,3.90
2012,01,23,07,19,3.90
2012,01,23,07,20,3.90
2012,01,23,07,21,3.90
2012,01,23,07,22,4.00
2012,01,23,07,23,4.00
2012,01,23,07,24,4.00
2012,01,23,07,25,4.00
2012,01,23,07,26,4.00
2012,01,23,07,27,4.00
2012,01,23,07,28,4.00
2012,01,23,07,29,4.00
2012,01,23,07,30,4.00
2012,01,23,07,31,4.00
2012,01,23,07,32,3.90
2012,01,23,07,33,3.90
2012,01,23,07,34,3.90
2012,01,23,07,35,3.90
2012,01,23,07,36,3.90
2012,01,23,07,37,3.90
2012,01,23,07,38,3.90
2012,01,23,07,39,3.90
2012,01,23,07,40,3.90
2012,01,23,07,41,3.90
2012,01,23,07,42,3.90
2012,01,23,07,43,3.90
2012,01,23,07,44,3.90
2012,01,23,07,45,4.00
2012,01,23,07,46,4.00
2012,01,23,07,47,4.00
2012,01,23,07,48,4.00
2012,01,23,07,49,4.00
2012,01,23,07,50,4.00
2012,01,23,07,51,4.10
2012,01,23,07,52,4.10
2012,01,23,07,53,4.10
2012,01,23,07,54,4.10
2012,01,23,07,55,4.10
2012,01,23,07,56,4.10
2012,01,23,07,57,4.20
2012,01,23,07,58,4.10
2012,01,23,07,59,4.10
2012,01,23,08,00,4.10
2012,01,23,08,01,4.10
2012,01,23,08,02,4.10
2012,01,23,08,03,4.10
2012,01,23,08,04,4.10
2012,01,23,08,05,4.10
2012,01,23,08,06,4.10
2012,01,23,08,07,4.10
2012,01,23,08,08,4.10
2012,01,23,08,09,4.10
2012,01,23,08,10,4.10
2012,01,23,08,11,4.10
2012,01,23,08,12,4.10
2012,01,23,08,13,4.10
2012,01,23,08,14,4.10
2012,01,23,08,15,4.10
2012,01,23,08,16,4.20
2012,01,23,08,17,4.20
2012,01,23,08,18,4.20
2012,01,23,08,19,4.30
2012,01,23,08,20,4.30
2012,01,23,08,21,4.30
2012,01,23,08,22,4.30
2012,01,23,08,23,4.30
2012,01,23,08,24,4.40
2012,01,23,08,25,4.40
2012,01,23,08,26,4.40
2012,01,23,08,27,4.40
2012,01,23,08,28,4.40
2012,01,23,08,29,4.40
2012,01,23,08,30,4.40
2012,01,23,08,31,4.50
2012,01,23,08,32,4.50
2012,01,23,08,33,4.50
2012,01,23,08,34,4.50
2012,01,23,08,35,4.60
2012,01,23,08,36,4.60
2012,01,23,08,37,4.60
2012,01,23,08,38,4.60
2012,01,23,08,39,4.60
2012,01,23,08,40,4.60
2012,01,23,08,41,4.60
2012,01,23,08,42,4.60
2012,01,23,08,43,4.60
2012,01,23,08,44,4.60
2012,01,23,08,45,4.60
2012,01,23,08,46,4.60
2012,01,23,08,47,4.60
2012,01,23,08,48,4.70
2012,01,23,08,49,4.70
2012,01,23,08,50,4.70
2012,01,23,08,51,4.70
2012,01,23,08,52,4.70
2012,01,23,08,53,4.70
2012,01,23,08,54,4.70
2012,01,23,08,55,4.70
2012,01,23,08,56,4.70
2012,01,23,08,57,4.80
2012,01,23,08,58,4.80
2012,01,23,08,59,4.80
2012,01,23,09,00,4.80
2012,01,23,09,01,4.80
2012,01,23,09,02,4.80
2012,01,23,09,03,4.80
2012,01,23,09,04,4.80
2012,01,23,09,05,4.80
2012,01,23,09,06,4.80
2012,01,23,09,07,4.80
2012,01,23,09,08,4.80
2012,01,23,09,09,4.80
2012,01,23,09,10,4.80
2012,01,23,09,11,4.90
2012,01,23,09,12,4.90
2012,01,23,09,13,4.90
2012,01,23,09,14,4.90
2012,01,23,09,15,4.90
2012,01,23,09,16,4.90
2012,01,23,09,17,5.00
2012,01,23,09,18,5.00
2012,01,23,09,19,5.00
2012,01,23,09,20,5.10
2012,01,23,09,21,5.10
2012,01,23,09,22,5.10
2012,01,23,09,23,5.10
2012,01,23,09,24,5.10
2012,01,23,09,25,5.10
2012,01,23,09,26,5.10
2012,01,23,09,27,5.20
2012,01,23,09,28,5.20
2012,01,23,09,29,5.20
2012,01,23,09,30,5.20
2012,01,23,09,31,5.20
2012,01,23,09,32,5.30
2012,01,23,09,33,5.30
2012,01,23,09,34,5.30
2012,01,23,09,35,5.30
2012,01,23,09,36,5.30
2012,01,23,09,37,5.30
2012,01,23,09,38,5.30
2012,01,23,09,39,5.30
2012,01,23,09,40,5.30
2012,01,23,09,41,5.40
2012,01,23,09,42,5.40
2012,01,23,09,43,5.40
2012,01,23,09,44,5.40
2012,01,23,09,45,5.40
2012,01,23,09,46,5.40
2012,01,23,09,47,5.40
2012,01,23,09,48,5.40
2012,01,23,09,49,5.40
2012,01,23,09,50,5.40
2012,01,23,09,51,5.40
2012,01,23,09,52,5.40
2012,01,23,09,53,5.40
2012,01,23,09,54,5.40
2012,01,23,09,55,5.40
2012,01,23,09,56,5.40
2012,01,23,09,57,5.50
2012,01,23,09,58,5.50
2012,01,23,09,59,5.50
2012,01,23,10,00,5.50
2012,01,23,10,01,5.50
2012,01,23,10,02,5.60
2012,01,23,10,03,5.60
2012,01,23,10,04,5.60
2012,01,23,10,05,5.60
2012,01,23,10,06,5.60
2012,01,23,10,07,5.70
2012,01,23,10,08,5.70
2012,01,23,10,09,5.80
2012,01,23,10,10,5.80
2012,01,23,10,11,5.80
2012,01,23,10,12,5.80
2012,01,23,10,13,5.90
2012,01,23,10,14,5.90
2012,01,23,10,15,6.00
2012,01,23,10,16,6.00
2012,01,23,10,17,6.00
2012,01,23,10,18,6.10
2012,01,23,10,19,6.10
2012,01,23,10,20,6.20
2012,01,23,10,21,6.20
2012,01,23,10,22,6.20
2012,01,23,10,23,6.20
2012,01,23,10,24,6.20
2012,01,23,10,25,6.30
2012,01,23,10,26,6.30
2012,01,23,10,27,6.30
2012,01,23,10,28,6.30
2012,01,23,10,29,6.30
2012,01,23,10,30,6.30
2012,01,23,10,31,6.30
2012,01,23,10,32,6.30
2012,01,23,10,33,6.30
2012,01,23,10,34,6.30
2012,01,23,10,35,6.30
2012,01,23,10,36,6.30
2012,01,23,10,37,6.40
2012,01,23,10,38,6.40
2012,01,23,10,39,6.40
2012,01,23,10,40,6.40
2012,01,23,10,41,6.50
2012,01,23,10,42,6.50
2012,01,23,10,43,6.60
2012,01,23,10,44,6.60
2012,01,23,10,45,6.60
2012,01,23,10,46,6.60
2012,01,23,10,47,6.60
2012,01,23,10,48,6.70
2012,01,23,10,49,6.70
2012,01,23,10,50,6.70
2012,01,23,10,51,6.70
2012,01,23,10,52,6.60
2012,01,23,10,53,6.60
2012,01,23,10,54,6.70
2012,01,23,10,55,6.60
2012,01,23,10,56,6.60
2012,01,23,10,57,6.60
2012,01,23,10,58,6.60
2012,01,23,10,59,6.60
2012,01,23,11,00,6.60
2012,01,23,11,01,6.60
2012,01,23,11,02,6.70
2012,01,23,11,03,6.70
2012,01,23,11,04,6.70
2012,01,23,11,05,6.70
2012,01,23,11,06,6.70
2012,01,23,11,07,6.70
2012,01,23,11,08,6.70
2012,01,23,11,09,6.70
2012,01,23,11,10,6.70
2012,01,23,11,11,6.70
2012,01,23,11,12,6.70
2012,01,23,11,13,6.70
2012,01,23,11,14,6.70
2012,01,23,11,15,6.70
2012,01,23,11,16,6.60
2012,01,23,11,17,6.60
2012,01,23,11,18,6.60
2012,01,23,11,19,6.50
2012,01,23,11,20,6.50
2012,01,23,11,21,6.50
2012,01,23,11,22,6.40
2012,01,23,11,23,6.40
2012,01,23,11,24,6.40
2012,01,23,11,25,6.40
2012,01,23,11,26,6.40
2012,01,23,11,27,6.40
2012,01,23,11,28,6.40
2012,01,23,11,29,6.40
2012,01,23,11,30,6.40
2012,01,23,11,31,6.40
2012,01,23,11,32,6.40
2012,01,23,11,33,6.50
2012,01,23,11,34,6.50
2012,01,23,11,35,6.60
2012,01,23,11,36,6.60
2012,01,23,11,37,6.60
2012,01,23,11,38,6.70
2012,01,23,11,39,6.70
2012,01,23,11,40,6.70
2012,01,23,11,41,6.70
2012,01,23,11,42,6.80
2012,01,23,11,43,6.80
2012,01,23,11,44,6.80
2012,01,23,11,45,6.80
2012,01,23,11,46,6.80
2012,01,23,11,47,6.80
2012,01,23,11,48,6.80
2012,01,23,11,49,6.80
2012,01,23,11,50,6.80
2012,01,23,11,51,6.80
2012,01,23,11,52,6.80
2012,01,23,11,53,6.80
2012,01,23,11,54,6.80
2012,01,23,11,55,6.80
2012,01,23,11,56,6.80
2012,01,23,11,57,6.80
2012,01,23,11,58,6.80
2012,01,23,11,59,6.90
2012,01,23,12,00,6.90
2012,01,23,12,01,6.90
2012,01,23,12,02,6.90
2012,01,23,12,03,6.80
2012,01,23,12,04,6.80
2012,01,23,12,05,6.80
2012,01,23,12,06,6.90
2012,01,23,12,07,6.90
2012,01,23,12,08,6.90
2012,01,23,12,09,6.90
2012,01,23,12,10,6.90
2012,01,23,12,11,6.90
2012,01,23,12,12,6.90
2012,01,23,12,13,6.90
2012,01,23,12,14,6.90
2012,01,23,12,15,6.90
2012,01,23,12,16,6.90
2012,01,23,12,17,6.90
2012,01,23,12,18,6.90
2012,01,23,12,19,6.90
2012,01,23,12,20,6.90
2012,01,23,12,21,6.90
2012,01,23,12,22,6.90
2012,01,23,12,23,6.90
2012,01,23,12,24,6.90
2012,01,23,12,25,6.90
2012,01,23,12,26,6.90
2012,01,23,12,27,6.90
2012,01,23,12,28,6.90
2012,01,23,12,29,6.90
2012,01,23,12,30,6.80
2012,01,23,12,31,6.80
2012,01,23,12,32,6.80
2012,01,23,12,33,6.80
2012,01,23,12,34,6.80
2012,01,23,12,35,6.80
2012,01,23,12,36,6.80
2012,01,23,12,37,6.80
2012,01,23,12,38,6.80
2012,01,23,12,39,6.80
2012,01,23,12,40,6.70
2012,01,23,12,41,6.70
2012,01,23,12,42,6.70
2012,01,23,12,43,6.70
2012,01,23,12,44,6.70
2012,01,23,12,45,6.70
2012,01,23,12,46,6.80
2012,01,23,12,47,6.80
2012,01,23,12,48,6.80
2012,01,23,12,49,6.80
2012,01,23,12,50,6.90
2012,01,23,12,51,6.90
2012,01,23,12,52,6.90
2012,01,23,12,53,7.00
2012,01,23,12,54,7.00
2012,01,23,12,55,7.10
2012,01,23,12,56,7.10
2012,01,23,12,57,7.10
2012,01,23,12,58,7.10
2012,01,23,12,59,7.20
2012,01,23,13,00,7.20
2012,01,23,13,01,7.20
2012,01,23,13,02,7.20
2012,01,23,13,03,7.30
2012,01,23,13,04,7.30
2012,01,23,13,05,7.30
2012,01,23,13,06,7.30
2012,01,23,13,07,7.30
2012,01,23,13,08,7.30
2012,01,23,13,09,7.30
2012,01,23,13,10,7.30
2012,01,23,13,11,7.30
2012,01,23,13,12,7.30
2012,01,23,13,13,7.30
2012,01,23,13,14,7.20
2012,01,23,13,15,7.20
2012,01,23,13,16,7.20
2012,01,23,13,17,7.10
2012,01,23,13,18,7.10
2012,01,23,13,19,7.00
2012,01,23,13,20,7.00
2012,01,23,13,21,6.90
2012,01,23,13,22,6.90
2012,01,23,13,23,6.80
2012,01,23,13,24,6.80
2012,01,23,13,25,6.80
2012,01,23,13,26,6.70
2012,01,23,13,27,6.70
2012,01,23,13,28,6.60
2012,01,23,13,29,6.60
2012,01,23,13,30,6.60
2012,01,23,13,31,6.50
2012,01,23,13,32,6.50
2012,01,23,13,33,6.40
2012,01,23,13,34,6.40
2012,01,23,13,35,6.40
2012,01,23,13,36,6.40
2012,01,23,13,37,6.30
2012,01,23,13,38,6.30
2012,01,23,13,39,6.30
2012,01,23,13,40,6.30
2012,01,23,13,41,6.40
2012,01,23,13,42,6.40
2012,01,23,13,43,6.40
2012,01,23,13,44,6.40
2012,01,23,13,45,6.50
2012,01,23,13,46,6.50
2012,01,23,13,47,6.50
2012,01,23,13,48,6.50
2012,01,23,13,49,6.50
2012,01,23,13,50,6.50
2012,01,23,13,51,6.50
2012,01,23,13,52,6.40
2012,01,23,13,53,6.40
2012,01,23,13,54,6.40
2012,01,23,13,55,6.40
2012,01,23,13,56,6.40
2012,01,23,13,57,6.40
2012,01,23,13,58,6.40
2012,01,23,13,59,6.40
2012,01,23,14,00,6.40
2012,01,23,14,01,6.40
2012,01,23,14,02,6.40
2012,01,23,14,03,6.40
2012,01,23,14,04,6.50
2012,01,23,14,05,6.50
2012,01,23,14,06,6.50
2012,01,23,14,07,6.50
2012,01,23,14,08,6.60
2012,01,23,14,09,6.60
2012,01,23,14,10,6.60
2012,01,23,14,11,6.60
2012,01,23,14,12,6.60
2012,01,23,14,13,6.60
2012,01,23,14,14,6.60
2012,01,23,14,15,6.60
2012,01,23,14,16,6.60
2012,01,23,14,17,6.50
2012,01,23,14,18,6.50
2012,01,23,14,19,6.50
2012,01,23,14,20,6.40
2012,01,23,14,21,6.40
2012,01,23,14,22,6.30
2012,01,23,14,23,6.30
2012,01,23,14,24,6.30
2012,01,23,14,25,6.20
2012,01,23,14,26,6.20
2012,01,23,14,27,6.20
2012,01,23,14,28,6.10
2012,01,23,14,29,6.10
2012,01,23,14,30,6.10
2012,01,23,14,31,6.00
2012,01,23,14,32,6.00
2012,01,23,14,33,5.90
2012,01,23,14,34,5.90
2012,01,23,14,35,5.90
2012,01,23,14,36,5.90
2012,01,23,14,37,5.90
2012,01,23,14,38,5.90
2012,01,23,14,39,5.90
2012,01,23,14,40,5.80
2012,01,23,14,41,5.80
2012,01,23,14,42,5.80
2012,01,23,14,43,5.80
2012,01,23,14,44,5.80
2012,01,23,14,45,5.80
2012,01,23,14,46,5.80
2012,01,23,14,47,5.80
2012,01,23,14,48,5.80
2012,01,23,14,49,5.80
2012,01,23,14,50,5.80
2012,01,23,14,51,5.80
2012,01,23,14,52,5.80
2012,01,23,14,53,5.80
2012,01,23,14,54,5.80
2012,01,23,14,55,5.80
2012,01,23,14,56,5.80
2012,01,23,14,57,5.80
2012,01,23,14,58,5.80
2012,01,23,14,59,5.80
2012,01,23,15,00,5.80
2012,01,23,15,01,5.80
2012,01,23,15,02,5.80
2012,01,23,15,03,5.80
2012,01,23,15,04,5.80
2012,01,23,15,05,5.80
2012,01,23,15,06,5.80
2012,01,23,15,07,5.80
2012,01,23,15,08,5.80
2012,01,23,15,09,5.80
2012,01,23,15,10,5.80
2012,01,23,15,11,5.80
2012,01,23,15,12,5.80
2012,01,23,15,13,5.80
2012,01,23,15,14,5.80
2012,01,23,15,15,5.80
2012,01,23,15,16,5.80
2012,01,23,15,17,5.80
2012,01,23,15,18,5.80
2012,01,23,15,19,5.80
2012,01,23,15,20,5.80
2012,01,23,15,21,5.80
2012,01,23,15,22,5.70
2012,01,23,15,23,5.70
2012,01,23,15,24,5.70
2012,01,23,15,25,5.70
2012,01,23,15,26,5.70
2012,01,23,15,27,5.70
2012,01,23,15,28,5.70
2012,01,23,15,29,5.70
2012,01,23,15,30,5.70
2012,01,23,15,31,5.70
2012,01,23,15,32,5.70
2012,01,23,15,33,5.70
2012,01,23,15,34,5.70
2012,01,23,15,35,5.70
2012,01,23,15,36,5.70
2012,01,23,15,37,5.70
2012,01,23,15,38,5.70
2012,01,23,15,39,5.70
2012,01,23,15,40,5.70
2012,01,23,15,41,5.70
2012,01,23,15,42,5.70
2012,01,23,15,43,5.70
2012,01,23,15,44,5.70
2012,01,23,15,45,5.70
2012,01,23,15,46,5.70
2012,01,23,15,47,5.70
2012,01,23,15,48,5.70
2012,01,23,15,49,5.70
2012,01,23,15,50,5.70
2012,01,23,15,51,5.70
2012,01,23,15,52,5.70
2012,01,23,15,53,5.70
2012,01,23,15,54,5.70
2012,01,23,15,55,5.70
2012,01,23,15,56,5.70
2012,01,23,15,57,5.60
2012,01,23,15,58,5.60
2012,01,23,15,59,5.60
2012,01,23,16,00,5.60
2012,01,23,16,01,5.60
2012,01,23,16,02,5.60
2012,01,23,16,03,5.60
2012,01,23,16,04,5.60
2012,01,23,16,05,5.60
2012,01,23,16,06,5.60
2012,01,23,16,07,5.60
2012,01,23,16,08,5.60
2012,01,23,16,09,5.60
2012,01,23,16,10,5.60
2012,01,23,16,11,5.60
2012,01,23,16,12,5.60
2012,01,23,16,13,5.60
2012,01,23,16,14,5.60
2012,01,23,16,15,5.60
2012,01,23,16,16,5.60
2012,01,23,16,17,5.60
2012,01,23,16,18,5.70
2012,01,23,16,19,5.70
2012,01,23,16,20,5.70
2012,01,23,16,21,5.70
2012,01,23,16,22,5.60
2012,01,23,16,23,5.60
2012,01,23,16,24,5.60
2012,01,23,16,25,5.60
2012,01,23,16,26,5.60
2012,01,23,16,27,5.60
2012,01,23,16,28,5.60
2012,01,23,16,29,5.60
2012,01,23,16,30,5.60
2012,01,23,16,31,5.60
2012,01,23,16,32,5.50
2012,01,23,16,33,5.50
2012,01,23,16,34,5.50
2012,01,23,16,35,5.50
2012,01,23,16,36,5.50
2012,01,23,16,37,5.50
2012,01,23,16,38,5.50
2012,01,23,16,39,5.60
2012,01,23,16,40,5.60
2012,01,23,16,41,5.60
2012,01,23,16,42,5.60
2012,01,23,16,43,5.60
2012,01,23,16,44,5.60
2012,01,23,16,45,5.60
2012,01,23,16,46,5.60
2012,01,23,16,47,5.60
2012,01,23,16,48,5.60
2012,01,23,16,49,5.60
2012,01,23,16,50,5.60
2012,01,23,16,51,5.60
2012,01,23,16,52,5.70
2012,01,23,16,53,5.70
2012,01,23,16,54,5.70
2012,01,23,16,55,5.70
2012,01,23,16,56,5.70
2012,01,23,16,57,5.70
2012,01,23,16,58,5.70
2012,01,23,16,59,5.70
2012,01,23,17,00,5.70
2012,01,23,17,01,5.70
2012,01,23,17,02,5.70
2012,01,23,17,03,5.70
2012,01,23,17,04,5.70
2012,01,23,17,05,5.70
2012,01,23,17,06,5.70
2012,01,23,17,07,5.70
2012,01,23,17,08,5.70
2012,01,23,17,09,5.70
2012,01,23,17,10,5.70
2012,01,23,17,11,5.70
2012,01,23,17,12,5.70
2012,01,23,17,13,5.70
2012,01,23,17,14,5.70
2012,01,23,17,15,5.70
2012,01,23,17,16,5.70
2012,01,23,17,17,5.70
2012,01,23,17,18,5.60
2012,01,23,17,19,5.60
2012,01,23,17,20,5.60
2012,01,23,17,21,5.60
2012,01,23,17,22,5.60
2012,01,23,17,23,5.60
2012,01,23,17,24,5.60
2012,01,23,17,25,5.60
2012,01,23,17,26,5.60
2012,01,23,17,27,5.60
2012,01,23,17,28,5.60
2012,01,23,17,29,5.60
2012,01,23,17,30,5.60
2012,01,23,17,31,5.70
2012,01,23,17,32,5.70
2012,01,23,17,33,5.70
2012,01,23,17,34,5.70
2012,01,23,17,35,5.70
2012,01,23,17,36,5.70
2012,01,23,17,37,5.70
2012,01,23,17,38,5.70
2012,01,23,17,39,5.70
2012,01,23,17,40,5.70
2012,01,23,17,41,5.70
2012,01,23,17,42,5.70
2012,01,23,17,43,5.70
2012,01,23,17,44,5.70
2012,01,23,17,45,5.70
2012,01,23,17,46,5.70
2012,01,23,17,47,5.70
2012,01,23,17,48,5.70
2012,01,23,17,49,5.70
2012,01,23,17,50,5.70
2012,01,23,17,51,5.70
2012,01,23,17,52,5.70
2012,01,23,17,53,5.70
2012,01,23,17,54,5.70
2012,01,23,17,55,5.70
2012,01,23,17,56,5.70
2012,01,23,17,57,5.70
2012,01,23,17,58,5.70
2012,01,23,17,59,5.70
2012,01,23,18,00,5.70
2012,01,23,18,01,5.70
2012,01,23,18,02,5.60
2012,01,23,18,03,5.60
2012,01,23,18,04,5.60
2012,01,23,18,05,5.60
2012,01,23,18,06,5.60
2012,01,23,18,07,5.60
2012,01,23,18,08,5.60
2012,01,23,18,09,5.60
2012,01,23,18,10,5.50
2012,01,23,18,11,5.50
2012,01,23,18,12,5.50
2012,01,23,18,13,5.50
2012,01,23,18,14,5.50
2012,01,23,18,15,5.50
2012,01,23,18,16,5.50
2012,01,23,18,17,5.50
2012,01,23,18,18,5.40
2012,01,23,18,19,5.40
2012,01,23,18,20,5.40
2012,01,23,18,21,5.40
2012,01,23,18,22,5.40
2012,01,23,18,23,5.40
2012,01,23,18,24,5.40
2012,01,23,18,25,5.40
2012,01,23,18,26,5.40
2012,01,23,18,27,5.40
2012,01,23,18,28,5.40
2012,01,23,18,29,5.40
2012,01,23,18,30,5.40
2012,01,23,18,31,5.50
2012,01,23,18,32,5.50
2012,01,23,18,33,5.50
2012,01,23,18,34,5.50
2012,01,23,18,35,5.40
2012,01,23,18,36,5.40
2012,01,23,18,37,5.40
2012,01,23,18,38,5.40
2012,01,23,18,39,5.40
2012,01,23,18,40,5.40
2012,01,23,18,41,5.40
2012,01,23,18,42,5.40
2012,01,23,18,43,5.40
2012,01,23,18,44,5.40
2012,01,23,18,45,5.40
2012,01,23,18,46,5.40
2012,01,23,18,47,5.40
2012,01,23,18,48,5.40
2012,01,23,18,49,5.40
2012,01,23,18,50,5.40
2012,01,23,18,51,5.40
2012,01,23,18,52,5.40
2012,01,23,18,53,5.40
2012,01,23,18,54,5.40
2012,01,23,18,55,5.40
2012,01,23,18,56,5.40
2012,01,23,18,57,5.40
2012,01,23,18,58,5.40
2012,01,23,18,59,5.40
2012,01,23,19,00,5.40
2012,01,23,19,01,5.30
2012,01,23,19,02,5.40
2012,01,23,19,03,5.30
2012,01,23,19,04,5.30
2012,01,23,19,05,5.30
2012,01,23,19,06,5.30
2012,01,23,19,07,5.30
2012,01,23,19,08,5.30
2012,01,23,19,09,5.30
2012,01,23,19,10,5.30
2012,01,23,19,11,5.30
2012,01,23,19,12,5.30
2012,01,23,19,13,5.40
2012,01,23,19,14,5.40
2012,01,23,19,15,5.40
2012,01,23,19,16,5.40
2012,01,23,19,17,5.40
2012,01,23,19,18,5.40
2012,01,23,19,19,5.40
2012,01,23,19,20,5.40
2012,01,23,19,21,5.40
2012,01,23,19,22,5.40
2012,01,23,19,23,5.40
2012,01,23,19,24,5.40
2012,01,23,19,25,5.40
2012,01,23,19,26,5.40
2012,01,23,19,27,5.40
2012,01,23,19,28,5.40
2012,01,23,19,29,5.40
2012,01,23,19,30,5.40
2012,01,23,19,31,5.40
2012,01,23,19,32,5.40
2012,01,23,19,33,5.40
2012,01,23,19,34,5.40
2012,01,23,19,35,5.40
2012,01,23,19,36,5.40
2012,01,23,19,37,5.40
2012,01,23,19,38,5.40
2012,01,23,19,39,5.40
2012,01,23,19,40,5.40
2012,01,23,19,41,5.40